Tracking 29892 objects as of 21-Nov-2024
HD Live streaming from Space Station
objects crossing your sky now

STARLINK-3325

Track STARLINK-3325 now!
10-day predictions
STARLINK-3325 is classified as:


NORAD ID: 50843
Int'l Code: 2022-001AS
Perigee: 546.0 km
Apogee: 547.8 km
Inclination: 53.2 °
Period: 95.4 minutes
Semi major axis: 6917 km
RCS: Unknown
Launch date: January 6, 2022
Source: United States (US)
Launch site: AIR FORCE EASTERN TEST RANGE (AFETR)
Your satellite tracking list
Your tracking list is empty




NASA's NSSDC Master Catalog

Two Line Element Set (TLE):
1 50843U 22001AS  24325.88290044  .00000048  00000-0  21080-4 0  9993
2 50843  53.2160 146.1209 0001344  94.1336 265.9810 15.08835077158739
Source of the keplerian elements: AFSPC